Regional Weather Roundup
Issued by NWS

Home | Current Version | Previous Version | Graphics & Text | Print | Product List | Glossary On
Versions: 1 2 3 4 5 6 7 8 9 10 11 12 13 14 15 16 17 18 19 20 21 22 23 24 25 26 27 28 29 30 31 32 33 34 35 36 37 38 39 40 41 42 43 44 45 46 47 48 49 50
000
ASUS44 KMEG 241910
RWRTN
TENNESSEE HOURLY STATE WEATHER ROUNDUP
NATIONAL WEATHER SERVICE MEMPHIS TN
100 PM CST WED DEC 24 2014

TNZ002-004-019-021-049-052-054-088>092-242000-
WEST TENNESSEE

CITY           SKY/WX    TMP DP  RH WIND       PRES   REMARKS
MEMPHIS INTL   CLOUDY    45  36  70 W9        29.78S
NWS MEMPHIS      N/A     44 N/A N/A MISG        N/A
JACKSON        CLOUDY    45  40  82 W9        29.73F
DYERSBURG      CLOUDY    43  30  61 W9        29.74F
UNION CITY     CLOUDY    39  39 100 W10       29.70F WCI  32
PARIS          CLOUDY    43  37  81 W9        29.69S
HUNTINGDON     CLOUDY    42  38  86 W9        29.71S
LEXINGTON      CLOUDY    45  39  81 W12       29.70S
SAVANNAH       CLOUDY    46  45  93 VRB7      29.73R
$$

TNZ008-025-027-028-033-062-065-066-242000-
NORTH MIDDLE TENNESSEE

CITY           SKY/WX    TMP DP  RH WIND       PRES   REMARKS
NASHVILLE      CLOUDY    45  41  86 W7        29.67R
CLARKSVILLE    CLOUDY    46  41  82 W14       29.65S
SMYRNA         CLOUDY    46  42  86 NW10      29.68R
COOKEVILLE     CLOUDY    46  45  93 W10       29.61R
CROSSVILLE     LGT RAIN  50  46  86 W20G32    29.58R FOG
$$

TNZ061-075-076-078-094-096-097-242000-
SOUTH MIDDLE TENNESSEE

CITY           SKY/WX    TMP DP  RH WIND       PRES   REMARKS
FAYETTEVILLE   CLOUDY    45  41  87 MISG      29.69R
TULLAHOMA      CLOUDY    45  43  93 W10       29.68R
WINCHESTER     CLOUDY    45  45 100 W10       29.68R
MCMINNVILLE    CLOUDY    46  46 100 SW12      29.65R
COLUMBIA       CLOUDY   N/A N/A N/A W10       29.67R
SHELBYVILLE    CLOUDY    46  45  93 W13       29.69R
$$

TNZ017-018-042-046-047-242000-
NORTHEAST TENNESSEE

CITY           SKY/WX    TMP DP  RH WIND       PRES   REMARKS
TRI CITIES     CLOUDY    62  57  83 CALM      29.57F
ELIZABETHTON   PTCLDY    63  54  72 E7        29.57F
$$

TNZ012-013-036-069-073-074-242000-
CENTRAL EAST TENNESSEE

CITY           SKY/WX    TMP DP  RH WIND       PRES   REMARKS
KNOXVILLE      CLOUDY    58  56  93 W6        29.53F
OAK RIDGE      CLOUDY    58  55  90 W6        29.56F
GATLINBURG     PTCLDY    57  55  94 CALM      29.53F
MORRISTOWN     CLEAR     59  57  94 CALM      29.55F
$$

TNZ083-085-099-242000-
SOUTHEAST TENNESSEE

CITY           SKY/WX    TMP DP  RH WIND       PRES   REMARKS
CHATTANOOGA    LGT RAIN  57  55  93 S10       29.59F FOG
$$

SKY/WX REPORTED AS FAIR MEANS FEW OR NO CLOUDS BELOW
12 THOUSAND FEET.




USA.gov is the U.S. government's official web portal to all federal, state and local government web resources and services.